Theta_e
314 314 314 314 315 315 314 315 319 320 323 324 321 319 318 318 318 311 304 311 315 319 320 313 313 312 314 309 309 307 294 291 293 294 294 298 297 300 302 300 300 301 301 304 308
314 314 314 315 315 315 313 315 319 320 324 323 321 319 318 318 309 306 316 320 322 320 313 308 305 308 304 306 306 300 293 294 298 298 296 299 299 299 298 299 300 302 305 308 311
314 314 314 314 314 315 314 314 317 321 324 323 320 319 318 314 304 304 321 323 319 315 311 310 308 307 302 304 302 300 294 299 300 300 301 299 299 302 298 296 300 299 303 307 309
314 314 314 314 314 316 316 315 318 323 323 321 320 319 317 309 291 310 321 320 316 315 311 308 306 303 300 298 303 295 300 300 301 303 301 298 301 299 299 299 304 305 306 307 307
315 315 315 315 316 316 316 318 322 322 321 321 319 318 311 303 303 316 322 321 316 315 309 307 304 302 298 299 301 297 300 302 302 302 301 302 299 299 299 303 305 306 307 305 307
316 315 316 318 318 317 319 321 322 322 321 320 317 316 309 299 313 319 320 318 314 312 309 309 305 305 300 299 298 301 300 300 301 301 301 299 299 300 301 305 305 306 305 306 306
317 317 318 319 321 322 321 323 322 320 319 316 313 312 305 303 316 317 316 313 314 313 307 310 309 304 301 297 302 300 295 297 298 300 299 301 295 296 302 304 303 303 304 305 307
317 317 318 319 321 322 320 319 319 318 316 313 314 310 300 313 315 313 313 311 313 313 311 313 311 305 302 302 299 294 294 287 297 299 300 298 288 298 302 301 299 301 302 304 305
315 316 317 317 317 317 319 319 318 316 314 315 310 307 298 313 308 310 310 306 308 310 310 310 309 302 301 294 290 293 285 288 292 299 298 297 290 298 302 300 297 299 300 302 304
315 315 315 315 316 315 315 314 316 314 311 309 308 300 302 300 305 307 310 308 305 306 305 305 302 295 295 291 280 285 286 289 287 294 296 293 292 295 298 298 295 296 298 300 302
315 315 315 315 315 315 315 312 304 302 304 299 299 299 301 305 308 305 308 305 305 301 293 299 291 287 290 291 291 289 287 285 289 294 293 290 290 292 295 295 295 296 297 298 299
315 314 313 313 315 317 312 302 302 304 296 303 302 302 304 306 300 303 308 299 297 292 295 292 287 294 294 292 290 289 286 285 290 292 290 288 288 292 294 296 297 297 296 297 300
314 314 314 312 312 313 306 304 311 309 299 297 301 299 301 304 298 300 304 300 295 291 292 287 290 294 292 290 288 287 286 286 285 288 289 287 285 288 293 297 298 298 298 299 299
314 314 313 313 309 309 305 310 312 310 294 292 295 299 302 303 297 304 305 300 295 290 291 290 294 291 290 288 289 283 290 289 287 284 278 288 277 284 292 293 295 296 295 298 298
314 313 313 312 309 306 307 311 310 304 282 293 295 306 303 297 298 299 306 299 291 291 290 288 289 289 288 289 290 286 291 288 288 284 282 284 279 287 292 290 292 294 297 297 298
313 313 311 312 312 309 311 310 306 291 278 289 296 295 295 297 297 299 298 300 298 291 291 290 294 291 290 291 292 293 289 289 286 284 277 283 281 285 285 288 290 294 297 298 298
312 312 309 309 305 311 310 305 289 284 292 288 290 294 293 292 293 294 292 289 285 280 282 289 290 292 293 288 292 291 286 277 276 277 279 286 282 283 290 292 292 294 296 298 299
311 310 311 309 311 311 308 296 282 287 289 295 293 293 289 291 292 291 288 285 288 286 282 279 278 288 291 288 285 286 287 279 273 275 278 286 278 284 293 295 294 297 298 299 299
309 309 310 310 311 310 301 287 287 288 292 291 292 288 288 290 288 288 285 284 286 286 280 279 281 289 290 290 288 288 284 288 282 280 275 282 284 288 292 293 293 294 297 297 297
304 307 307 309 311 306 296 290 292 296 294 293 286 288 284 286 284 285 283 287 286 287 287 285 277 288 289 290 290 286 289 281 283 272 274 279 279 280 287 290 291 291 293 295 297
304 300 305 311 307 301 289 291 294 296 295 291 289 287 287 285 285 283 283 287 288 287 287 286 281 283 286 284 282 283 282 284 281 280 272 271 277 288 289 290 289 290 293 294 295
303 296 306 307 297 296 294 294 293 295 296 293 292 290 287 287 285 284 283 285 289 288 284 287 282 275 282 287 287 285 282 283 276 277 278 275 276 291 291 292 292 292 294 294 296
298 299 306 304 292 293 294 294 294 293 293 292 291 292 290 286 282 286 285 291 290 288 284 286 279 271 276 280 284 281 284 284 281 277 276 272 277 292 292 292 293 291 293 294 295
297 294 301 300 295 292 290 291 291 295 292 293 291 289 287 285 287 284 285 289 290 289 291 288 281 276 274 277 280 279 281 283 280 273 275 279 281 286 288 291 292 293 292 293 295
299 296 294 291 293 292 291 291 289 288 292 292 289 289 287 282 284 283 285 285 288 290 287 284 272 279 281 283 282 280 280 282 277 279 273 279 279 284 286 286 288 292 292 294 295
294 295 295 293 294 291 291 289 289 290 289 288 287 290 289 283 284 282 284 282 282 285 283 284 274 275 271 281 281 279 281 282 282 282 281 281 281 288 289 288 288 291 293 293 294
299 299 295 295 292 290 291 291 291 290 291 291 289 287 286 287 288 287 286 286 285 282 283 281 277 274 274 278 277 272 278 281 282 284 284 278 283 287 286 289 290 291 293 294 294
Wind_Speed
11 9 11 8 8 7 8 7 12 6 12 16 14 13 10 8 6 2 10 4 2 2 6 1 2 3 1 2 3 2 3 4 3 3 5 6 1 2 2 5 7 7 8 9 10
13 12 12 11 13 10 11 7 13 3 16 17 14 12 9 6 13 13 3 4 7 2 3 2 4 0 3 2 0 3 2 6 6 7 5 6 2 5 4 8 10 8 9 6 6
18 16 14 13 11 11 8 7 10 9 14 14 13 11 7 3 8 7 7 6 5 2 2 2 1 3 1 2 2 2 3 5 4 4 5 6 8 7 8 11 10 7 10 9 8
18 16 15 12 11 10 8 8 6 20 16 14 11 9 5 4 7 3 4 2 1 3 1 1 3 3 3 4 2 4 4 2 4 3 4 7 8 10 12 12 10 10 7 6 9
20 18 15 12 8 7 7 9 16 17 15 11 8 7 3 9 7 3 2 5 2 4 5 4 5 3 4 1 2 7 5 3 6 7 7 10 11 12 11 11 10 9 7 8 10
18 17 17 13 9 9 10 17 17 14 13 10 6 2 1 15 4 3 8 7 4 3 3 3 5 5 7 3 3 5 7 10 9 11 12 12 12 9 6 7 6 7 11 10 8
21 20 20 22 22 22 20 17 14 11 8 5 1 1 16 7 1 6 1 3 1 4 1 1 5 7 5 5 4 7 10 10 12 7 2 6 9 14 12 13 5 7 7 7 7
23 22 20 20 20 18 16 13 8 6 3 3 6 1 6 2 3 4 3 4 3 1 3 3 5 7 8 6 8 7 8 4 7 3 3 4 8 4 9 9 8 6 7 6 6
22 21 19 19 17 14 10 5 6 3 3 8 5 4 6 3 1 3 5 3 2 5 5 4 3 7 5 8 6 8 4 5 5 4 6 9 8 9 6 9 10 7 7 7 8
18 18 18 16 16 14 10 5 4 6 6 3 3 5 2 3 2 4 3 5 4 5 9 5 6 4 7 3 4 4 3 8 7 3 6 11 12 12 14 10 7 6 6 8 10
13 14 14 13 12 12 9 4 2 4 10 8 7 10 4 1 3 3 1 5 6 7 6 0 3 7 7 5 8 9 10 8 9 14 9 7 13 12 11 11 4 6 8 8 11
14 9 7 8 13 14 6 6 4 2 4 6 6 6 2 3 3 3 3 4 7 7 7 2 7 8 8 8 10 9 10 12 11 10 6 9 13 15 12 3 2 5 5 7 13
18 16 11 3 8 2 10 5 2 4 5 2 2 4 2 6 3 3 4 7 8 7 6 5 10 6 8 8 11 10 7 10 8 9 10 12 17 22 14 5 3 6 6 7 11
16 17 16 13 4 3 3 2 2 0 2 7 4 3 1 4 3 3 2 2 4 3 6 7 4 5 8 9 8 8 5 7 11 7 4 6 6 3 9 6 5 6 7 10 13
14 12 13 8 6 2 4 4 4 2 3 4 2 2 3 4 7 4 3 4 7 10 3 6 4 8 8 5 6 5 3 3 8 7 9 10 2 6 5 2 5 5 8 10 11
15 11 14 3 2 2 4 5 3 1 1 2 2 3 7 5 1 3 3 5 4 6 6 12 8 2 6 8 6 8 4 6 6 6 4 8 5 4 2 2 3 5 7 9 12
16 10 7 4 3 4 4 3 3 3 4 3 2 5 6 4 3 2 5 2 3 5 3 5 8 4 1 9 5 8 1 2 3 3 5 6 5 9 7 3 1 4 5 7 8
13 9 4 2 3 4 3 1 3 2 2 1 3 6 4 4 2 3 5 2 5 6 4 3 4 6 4 1 4 7 2 2 4 2 2 5 6 5 8 6 3 1 3 5 7
14 3 3 3 1 2 2 3 1 1 2 4 7 4 4 5 3 4 5 2 2 5 4 4 3 3 3 1 1 2 2 3 3 5 2 6 4 4 6 5 4 4 4 6 7
5 2 2 1 1 2 2 3 1 2 2 2 4 1 4 4 1 2 0 3 2 0 4 2 6 0 3 2 6 4 4 2 2 3 5 5 4 4 7 5 2 3 5 6 7
3 3 1 3 1 3 1 2 1 3 0 3 5 5 5 4 2 3 1 4 3 1 2 5 3 4 1 7 1 4 3 4 2 2 2 4 6 3 6 4 3 2 3 4 6
3 3 2 2 1 2 1 3 3 2 3 3 3 5 6 4 4 5 2 3 5 0 3 4 4 5 4 4 3 3 2 1 1 2 4 3 9 3 6 5 3 5 4 3 3
3 3 2 1 1 2 3 3 2 4 5 3 4 4 3 4 4 6 2 6 6 2 1 3 3 5 1 2 1 4 5 4 5 0 6 1 8 5 6 5 6 4 5 4 2
2 4 1 2 1 3 3 5 3 3 3 2 4 0 4 5 7 4 4 3 5 2 4 1 3 7 7 6 3 5 5 8 7 3 4 9 8 4 6 8 7 6 5 4 2
2 1 1 4 0 4 1 4 4 3 4 4 4 8 4 4 5 5 4 2 6 6 4 2 4 5 12 16 11 9 8 9 11 11 5 5 8 10 9 8 7 6 2 5 5
1 3 1 4 3 4 4 3 3 3 3 5 5 4 6 5 4 5 6 2 3 5 4 4 5 4 8 8 7 11 12 14 14 14 18 18 25 20 17 1 1 4 6 5 6
1 2 1 3 3 3 4 4 0 2 5 3 3 5 7 6 4 5 5 6 3 1 4 6 1 3 7 2 6 9 13 18 9 7 17 11 11 4 2 5 6 7 7 7 6
Wind_Direction
32 45 31 49 59 80 70 85 108 91 142 134 129 124 130 155 186 185 51 40 89 101 292 121 83 61 234 121 314 275 269 278 265 145 72 116 344 14 98 261 270 267 265 280 300
38 58 44 75 68 52 89 98 113 176 154 131 128 128 153 179 84 66 24 127 108 234 283 15 75 195 151 101 247 263 289 18 19 37 357 5 319 295 307 295 291 284 257 276 348
59 50 59 68 54 40 85 127 117 161 127 129 130 140 155 241 77 40 20 127 141 253 35 350 352 301 80 271 96 352 271 29 3 12 355 309 298 276 264 268 268 272 324 324 328
53 50 53 48 39 31 85 113 131 129 114 118 140 146 146 227 84 65 34 187 218 336 355 358 268 232 238 204 103 279 242 327 322 10 299 282 301 292 280 269 272 288 282 281 287
49 39 33 24 30 43 77 101 111 100 107 131 147 141 234 80 73 18 126 215 202 328 7 356 291 331 261 329 240 234 282 269 254 252 254 258 259 257 269 275 282 278 279 280 269
55 41 30 15 73 73 94 104 106 124 138 145 141 120 146 78 270 151 154 205 45 317 17 332 15 348 292 259 231 345 303 287 275 266 258 261 268 265 241 243 226 265 262 256 268
53 64 53 53 72 78 90 86 96 99 93 91 228 184 66 87 56 120 155 57 66 352 257 32 330 306 336 298 358 275 276 271 254 245 2 29 276 243 236 265 237 270 293 302 317
46 44 47 63 64 77 77 81 84 81 72 318 296 84 76 293 350 176 139 126 130 208 334 349 321 289 268 300 266 250 244 300 49 42 164 147 285 270 213 229 253 264 290 282 295
37 38 40 41 41 37 36 88 127 125 263 260 274 144 97 192 205 48 3 353 285 225 237 238 262 256 270 250 285 219 271 227 275 227 251 223 291 330 262 274 271 231 290 322 348
41 38 31 26 17 360 338 295 282 211 223 279 15 98 173 65 24 313 257 271 291 284 243 220 209 265 245 195 265 319 262 297 268 200 258 258 267 282 273 266 270 269 335 350 344
59 46 34 19 7 341 326 274 245 42 36 46 47 89 96 126 219 210 298 269 238 247 265 212 321 276 318 334 321 306 284 271 272 281 243 254 277 278 294 275 281 348 9 341 311
15 42 62 4 352 353 11 55 52 311 46 43 91 82 60 315 243 120 267 297 338 300 312 282 268 294 355 306 280 284 284 289 275 290 263 254 266 267 264 178 49 33 9 317 321
8 7 341 324 327 20 74 63 328 332 268 68 38 27 345 308 6 21 332 331 286 299 285 291 281 355 308 290 310 291 277 275 299 311 295 273 278 250 249 147 72 32 3 320 316
1 357 351 338 307 318 64 44 307 36 10 4 353 62 268 315 266 30 4 318 291 312 335 281 333 319 301 306 323 310 13 304 298 291 259 321 288 184 178 151 42 20 342 324 328
352 349 343 352 319 10 17 328 319 247 67 335 352 65 238 307 323 128 50 281 282 307 353 275 340 326 309 325 341 286 318 286 275 277 278 280 241 215 126 32 337 6 332 325 320
338 335 328 275 241 38 313 302 255 88 337 349 286 317 329 190 213 303 240 194 237 291 238 258 289 280 267 319 258 292 280 253 257 259 271 220 180 221 133 215 338 330 321 322 323
328 312 324 292 330 320 301 243 7 80 153 277 318 327 319 290 299 291 301 267 7 337 262 289 236 210 123 289 158 247 321 216 222 194 235 153 172 242 144 133 119 288 307 298 309
330 308 194 301 323 302 242 285 68 204 193 227 243 285 234 29 168 287 287 254 168 328 286 307 306 206 125 9 317 303 339 329 320 335 298 160 232 246 136 155 144 153 247 299 292
318 203 233 78 300 278 262 68 251 33 24 308 289 253 162 157 210 306 174 23 16 357 313 350 269 149 184 46 275 68 249 37 289 218 316 222 185 123 149 187 103 352 353 338 330
319 280 146 53 257 258 38 265 4 8 339 251 294 198 311 11 356 309 197 95 36 297 323 340 297 290 112 217 213 239 329 241 217 296 294 268 246 195 187 165 75 345 343 343 338
273 294 100 120 292 237 144 303 272 156 110 287 323 297 284 321 301 242 271 125 144 12 288 313 220 282 100 206 118 186 224 213 163 257 226 296 269 57 123 138 210 300 337 350 350
310 275 149 172 320 236 269 347 2 208 167 268 274 275 279 325 289 273 223 134 118 66 268 67 309 276 263 86 33 308 267 115 115 298 253 155 274 154 131 161 188 278 317 341 1
295 285 174 232 260 206 159 238 252 204 228 216 249 206 4 273 297 237 311 129 142 206 345 47 245 308 229 3 205 244 210 203 119 298 237 160 264 172 162 194 224 230 279 291 2
307 318 221 226 248 297 310 242 218 156 271 248 289 130 258 251 207 284 281 131 134 197 107 68 252 209 210 199 164 231 225 189 162 179 263 242 277 250 221 220 217 213 242 274 281
213 360 84 298 123 315 55 309 235 216 218 196 243 240 279 292 275 222 241 251 168 149 180 205 241 265 267 271 269 249 218 230 203 219 191 256 296 284 294 302 245 190 191 270 271
333 351 210 273 309 261 194 245 237 193 197 210 235 310 213 248 325 311 359 274 312 162 231 148 280 16 281 259 241 260 243 216 236 228 250 263 277 274 263 279 253 193 223 237 257
112 159 238 261 230 244 223 229 162 34 224 278 316 324 274 274 335 315 298 281 197 244 240 170 155 6 274 310 314 301 228 206 195 212 220 233 228 250 208 225 226 233 218 218 245